Location: Bjelajci
(45.0103°N, 16.1758°E)
Time: 09:31:52
(UTC+00:00)

SL-16 R/B - Pass Details

Date: 14 July 2020
Orbit: 985 x 1006 km, 99.5° (Epoch: 08 August)

Event Time Altitude Azimuth Distance (km) Brightness Sun altitude
Exits shadow 00:11:55 22° 146° (SSE) 2,012 3.8 -21.4°
Maximum altitude 00:16:00 66° 70° (ENE) 1,090 2.8 -21.2°
Drops below altitude 10° 00:22:13 10° 350° (N) 2,792 5.7 -20.8°
Sets 00:24:43 0° 348° (NNW) 3,747 6.5 -20.7°
